CFG109 LFMN-EDDP

Flight info

Callsign CFG109
Flight time N/A
Altitude 38000
Route BASIP Y15 ANAKI DCT ABESI DCT LOKTA/N0464F390 DCT TEDGO DCT HAREM DCT LOHRE N746 TIKNI T279 TAMEB T955 GOXLI GOXLI1R
Aircraft A339/H-SADE1E2E3GHIJ3J5M1P2RWXY/LB2D1

Departure

Time 2026-05-01 09:03
Airport Nice-Côte d'Azur Airport (LFMN)

Arrival

Time N/A
Airport Leipzig/Halle Airport (EDDP)
Time Latitude Longitude Altitude Speed Heading
2026-05-01 08:28 43.66389 7.21008 27 ft 0 kts 351°
2026-05-01 08:54 43.66375 7.21011 27 ft 4 kts 351°
2026-05-01 08:54 43.66348 7.21016 25 ft 3 kts 351°
2026-05-01 08:54 43.66328 7.21019 25 ft 4 kts 328°
2026-05-01 08:55 43.66312 7.21034 26 ft 4 kts 281°
2026-05-01 08:55 43.66310 7.21066 26 ft 4 kts 261°
2026-05-01 08:55 43.66313 7.21090 25 ft 0 kts 261°
2026-05-01 08:57 43.66312 7.21080 25 ft 4 kts 261°
2026-05-01 08:57 43.66292 7.21020 27 ft 8 kts 230°
2026-05-01 08:58 43.66242 7.21010 27 ft 8 kts 176°
2026-05-01 08:58 43.66183 7.21021 27 ft 9 kts 172°
2026-05-01 08:58 43.66115 7.21034 27 ft 11 kts 172°
2026-05-01 08:58 43.66037 7.21051 27 ft 12 kts 170°
2026-05-01 08:59 43.65957 7.21088 27 ft 12 kts 164°
2026-05-01 08:59 43.65887 7.21052 27 ft 11 kts 217°
2026-05-01 08:59 43.65831 7.20976 27 ft 12 kts 225°
2026-05-01 08:59 43.65769 7.20893 27 ft 13 kts 222°
2026-05-01 09:00 43.65704 7.20802 27 ft 14 kts 225°
2026-05-01 09:00 43.65635 7.20709 27 ft 14 kts 220°
2026-05-01 09:00 43.65547 7.20691 26 ft 0 kts 173°
2026-05-01 09:00 43.65546 7.20691 26 ft 0 kts 173°
2026-05-01 09:01 43.65544 7.20691 26 ft 3 kts 173°
2026-05-01 09:01 43.65486 7.20735 28 ft 12 kts 132°
2026-05-01 09:01 43.65492 7.20824 30 ft 9 kts 54°
2026-05-01 09:01 43.65527 7.20878 27 ft 0 kts 45°
2026-05-01 09:02 43.65591 7.20967 28 ft 46 kts 45°
2026-05-01 09:02 43.66017 7.21555 31 ft 125 kts 45°
2026-05-01 09:03 43.66789 7.22612 45 ft 182 kts 44°
2026-05-01 09:03 43.67602 7.23796 1113 ft 152 kts 47°
2026-05-01 09:03 43.68137 7.25083 1822 ft 166 kts 73°
2026-05-01 09:03 43.68045 7.26717 2319 ft 181 kts 116°
2026-05-01 09:04 43.67312 7.28205 2909 ft 197 kts 130°
2026-05-01 09:04 43.66362 7.29686 3398 ft 215 kts 133°
2026-05-01 09:04 43.65354 7.31283 3987 ft 224 kts 123°
2026-05-01 09:04 43.65081 7.31908 4253 ft 224 kts 119°